CAPE
0 0 0 0 0 0 0 0 0 0 0 0 0 0 0 0 0 0 0 0 0 0 0 0 0 0 0 0 12 82 22 59 16 69 14 280 167 412 23 247 448 577 495 114 1
0 0 0 0 0 0 0 0 0 0 0 0 0 0 0 0 0 0 0 0 0 0 0 0 0 0 9 0 0 0 15 0 0 8 113 125 65 0 0 241 735 574 375 54 0
0 0 0 0 0 0 0 0 0 0 0 0 0 0 0 0 0 0 0 0 0 0 0 0 0 0 8 0 0 0 0 0 0 0 3 119 76 0 30 93 631 603 234 31 5
0 0 0 0 0 0 0 0 0 0 0 0 0 0 0 0 0 0 0 0 0 0 0 0 0 0 21 45 0 3 0 0 0 0 0 19 67 77 19 489 627 614 258 69 25
0 0 0 0 0 0 0 0 0 0 0 0 0 0 0 0 0 0 0 0 0 0 0 0 0 2 6 39 0 0 4 0 0 0 0 4 52 192 108 560 649 678 539 299 171
0 0 0 0 0 0 0 0 0 0 0 0 0 0 0 0 0 0 0 0 0 0 0 0 0 4 2 17 0 2 0 1 0 0 4 8 18 156 74 631 676 805 607 415 371
0 0 0 0 0 0 0 0 0 0 0 0 0 0 0 0 0 0 0 0 0 0 0 0 0 0 1 42 19 0 0 0 0 0 1 5 3 21 366 764 758 900 875 474 299
0 0 0 0 0 0 0 0 0 0 0 0 0 0 0 0 0 0 0 0 0 0 0 0 0 0 0 9 10 0 0 2 0 0 2 45 0 0 31 731 816 851 932 752 627
0 0 0 0 0 0 0 0 0 0 0 0 0 0 0 0 0 0 0 0 0 0 0 0 0 0 0 0 2 9 0 6 1 0 0 16 115 112 130 623 905 900 835 811 696
0 0 0 0 0 0 0 0 0 0 0 0 0 0 0 0 0 0 0 0 0 0 0 0 0 0 0 2 5 26 9 11 33 11 0 24 79 10 70 230 1007 421 6 974 744
0 0 0 0 0 0 0 0 0 0 0 0 0 0 0 0 0 0 0 0 0 0 0 0 0 0 0 0 0 45 9 2 9 0 0 5 90 56 121 74 737 538 2 0 497
0 0 0 0 0 0 0 0 0 0 0 0 0 0 0 0 0 0 0 0 0 0 0 0 0 0 0 8 12 65 17 18 23 16 0 1 22 33 50 153 292 760 530 17 389
0 0 0 0 0 0 0 0 0 0 0 0 0 0 0 0 0 0 0 0 0 0 0 0 0 0 0 0 94 195 2 37 6 5 0 0 0 7 44 23 239 452 956 376 730
0 0 0 0 0 0 0 0 0 0 0 0 0 0 0 0 0 0 0 0 0 0 0 0 0 0 0 0 19 183 0 11 8 0 0 19 3 76 65 0 323 540 681 901 1077
0 0 0 0 0 0 0 0 0 0 0 0 0 0 0 0 0 0 0 0 0 0 0 0 0 0 0 0 108 44 1 14 9 0 0 31 0 23 85 26 388 530 689 676 945
0 0 0 0 0 0 0 0 0 0 0 0 0 0 0 0 0 0 0 0 0 0 0 0 0 0 0 6 28 45 0 15 2 0 1 27 52 92 43 1 219 452 731 798 800
0 0 0 0 0 0 0 0 0 0 0 0 0 0 0 0 0 0 0 0 0 0 0 0 0 0 0 1 13 7 36 19 0 0 20 2 20 59 31 43 71 290 615 786 537
0 0 0 0 0 0 0 0 0 0 0 0 0 0 0 0 0 0 0 0 0 0 0 0 0 0 0 0 2 8 33 3 14 5 0 0 0 0 23 12 8 175 654 628 529
0 0 0 0 0 0 0 0 0 0 0 0 0 0 0 0 0 0 0 0 0 0 0 0 0 0 0 0 0 0 1 0 0 0 0 4 4 40 61 70 102 245 649 553 563
0 0 0 0 0 0 0 0 0 0 0 0 0 0 0 0 0 0 0 0 0 0 0 0 0 0 0 0 0 4 76 34 3 13 2 10 145 59 229 293 142 301 649 562 949
0 0 0 0 0 0 0 0 0 0 0 0 0 0 0 0 0 0 0 0 0 0 0 0 0 6 0 0 0 0 0 4 17 7 8 17 172 160 54 146 383 369 656 647 1054
0 0 0 0 0 0 0 0 0 0 0 0 0 0 0 0 0 0 0 0 0 0 0 0 0 0 16 6 0 1 0 45 58 1 24 30 80 94 105 128 369 439 610 767 1152
0 0 0 0 0 0 0 0 0 0 0 0 0 0 0 0 0 0 0 0 0 0 0 0 0 0 1 62 3 0 0 0 0 7 44 68 260 182 122 184 262 552 605 1213 1376
0 0 1 0 0 0 0 5 0 0 0 0 0 0 0 0 0 0 1 0 0 0 0 0 0 0 10 0 58 0 0 20 28 31 222 116 132 34 15 142 293 526 669 1457 1573
0 6 43 39 0 0 0 0 6 0 0 0 0 0 0 0 5 38 25 10 0 0 0 0 0 0 15 0 3 17 11 16 4 51 83 1 2 1 0 2 324 432 808 1141 1694
0 1 0 0 134 24 0 0 13 8 0 0 0 0 0 0 158 83 66 116 9 0 0 0 0 0 0 0 0 9 16 0 0 44 31 35 12 0 0 42 51 714 907 1153 2148
3 0 0 0 0 40 34 11 1 21 14 14 4 6 21 65 22 54 46 47 146 0 0 0 0 0 0 0 0 15 2 0 9 0 13 28 89 38 19 18 140 696 1010 1423 2343
CIN
-0 -0 -0 -0 -0 -0 -0 -0 -0 -0 -0 -0 -0 -0 -0 -0 -0 -0 -0 -0 -0 -0 -0 -0 -0 -0 -0 -0 -36 -11 -31 -10 -34 -27 -48 -27 -86 -147 -376 -182 -23 -8 -53 -134 -41
-0 -0 -0 -0 -0 -0 -0 -0 -0 -0 -0 -0 -0 -0 -0 -0 -0 -0 -0 -0 -0 -0 -0 -0 -0 -0 -8 -0 -0 -0 -26 -0 -0 -5 -29 -108 -40 -0 -0 -71 -15 -41 -67 -209 -18
-0 -0 -0 -0 -0 -0 -0 -0 -0 -0 -0 -0 -0 -0 -0 -0 -0 -0 -0 -0 -0 -0 -0 -0 -0 -0 -24 -0 -0 -0 -0 -0 -0 -0 -16 -222 -140 -0 -54 -103 -23 -41 -91 -236 -247
-0 -0 -0 -0 -0 -0 -0 -0 -0 -0 -0 -0 -0 -0 -0 -0 -0 -0 -0 -0 -0 -0 -0 -0 -0 -0 -33 -5 -0 -5 -0 -0 -0 -0 -0 -60 -220 -130 -126 -6 -28 -53 -92 -149 -168
-0 -0 -0 -0 -0 -0 -0 -0 -0 -0 -0 -0 -0 -0 -0 -0 -0 -0 -0 -0 -0 -0 -0 -0 -0 -1 -8 -12 -0 -0 -5 -0 -0 -0 -0 -6 -42 -33 -89 -15 -36 -45 -51 -54 -58
-0 -0 -0 -0 -0 -0 -0 -0 -0 -0 -0 -0 -0 -0 -0 -0 -0 -0 -0 -0 -0 -0 -0 -0 -0 -4 -6 -18 -0 -1 -0 -3 -0 -0 -3 -11 -3 -9 -59 -19 -30 -24 -6 -5 -5
-0 -0 -0 -0 -0 -0 -0 -0 -0 -0 -0 -0 -0 -0 -0 -0 -0 -0 -0 -0 -0 -0 -0 -0 -0 -0 -15 -4 -4 -0 -0 -0 -0 -0 -1 -9 -113 -127 -8 -6 -3 -1 -2 -3 -3
-0 -0 -0 -0 -0 -0 -0 -0 -0 -0 -0 -0 -0 -0 -0 -0 -0 -0 -0 -0 -0 -0 -0 -0 -0 -0 -0 -4 -10 -0 -0 -2 -1 -0 -6 -32 -0 -0 -160 -3 -13 -3 -2 -3 -1
-0 -0 -0 -0 -0 -0 -0 -0 -0 -0 -0 -0 -0 -0 -0 -0 -0 -0 -0 -0 -0 -0 -0 -0 -0 -0 -0 -0 -4 -2 -1 -16 -18 -0 -0 -5 -37 -33 -8 -1 -77 -25 -1 -7 -2
-0 -0 -0 -0 -0 -0 -0 -0 -0 -0 -0 -0 -0 -0 -0 -0 -0 -0 -0 -0 -0 -0 -0 -0 -0 -0 -0 -1 -2 -53 -23 -13 -7 -6 -0 -2 -16 -12 -108 -12 -26 -93 -70 -13 -3
-0 -0 -0 -0 -0 -0 -0 -0 -0 -0 -0 -0 -0 -0 -0 -0 -0 -0 -0 -0 -0 -0 -0 -0 -0 -0 -0 -0 -0 -27 -43 -9 -57 -0 -0 -19 -12 -48 -63 -39 -24 -164 -0 -0 -66
-0 -0 -0 -0 -0 -0 -0 -0 -0 -0 -0 -0 -0 -0 -0 -0 -0 -0 -0 -0 -0 -0 -0 -0 -0 -0 -0 -6 -56 -13 -10 -4 -20 -16 -0 -15 -23 -15 -33 -27 -5 -118 -365 -249 -141
-0 -0 -0 -0 -0 -0 -0 -0 -0 -0 -0 -0 -0 -0 -0 -0 -0 -0 -0 -0 -0 -0 -0 -0 -0 -0 -0 -2 -6 -2 -2 -7 -19 -31 -0 -0 -0 -31 -4 -40 -5 -10 -107 -122 -140
-0 -0 -0 -0 -0 -0 -0 -0 -0 -0 -0 -0 -0 -0 -0 -0 -0 -0 -0 -0 -0 -0 -0 -0 -0 -0 -0 -0 -55 -12 -0 -9 -12 -0 -0 -31 -7 -66 -92 -0 -36 -8 -4 -11 -11
-0 -0 -0 -0 -0 -0 -0 -0 -0 -0 -0 -0 -0 -0 -0 -0 -0 -0 -0 -0 -0 -0 -0 -0 -0 -0 -0 -0 -24 -3 -7 -14 -35 -0 -0 -37 -2 -8 -62 -171 -54 -21 -10 -8 -4
-0 -0 -0 -0 -0 -0 -0 -0 -0 -0 -0 -0 -0 -0 -0 -0 -0 -0 -0 -0 -0 -0 -0 -0 -0 -0 -0 -8 -5 -5 -38 -26 -25 -0 -9 -11 -21 -34 -72 -18 -177 -35 -1 -4 -1
-0 -0 -0 -0 -0 -0 -0 -0 -0 -0 -0 -0 -0 -0 -0 -0 -0 -0 -0 -0 -0 -0 -0 -0 -0 -0 -0 -1 -6 -3 -14 -3 -0 -0 -20 -37 -45 -41 -44 -80 -29 -8 -2 -5 -3
-0 -0 -0 -0 -0 -0 -0 -0 -0 -0 -0 -0 -0 -0 -0 -0 -0 -0 -0 -0 -0 -0 -0 -0 -0 -0 -0 -0 -3 -6 -5 -3 -9 -9 -0 -0 -24 -0 -36 -78 -59 -36 -24 -19 -5
-0 -0 -0 -0 -0 -0 -0 -0 -0 -0 -0 -0 -0 -0 -0 -0 -0 -0 -0 -0 -0 -0 -0 -0 -0 -0 -0 -0 -0 -0 -5 -0 -0 -0 -0 -31 -12 -25 -13 -52 -49 -44 -34 -48 -17
-0 -0 -0 -0 -0 -0 -0 -0 -0 -0 -0 -0 -0 -0 -0 -0 -0 -0 -0 -0 -0 -0 -0 -0 -1 -0 -0 -0 -0 -7 -34 -8 -7 -3 -88 -45 -3 -24 -2 -10 -36 -37 -26 -65 -12
-0 -0 -0 -0 -0 -0 -0 -0 -0 -0 -0 -0 -0 -0 -0 -0 -0 -0 -0 -0 -0 -0 -0 -0 -0 -16 -0 -0 -0 -0 -0 -80 -28 -17 -10 -3 -13 -68 -54 -42 -10 -12 -1 -24 -11
-0 -0 -0 -0 -0 -0 -0 -0 -0 -0 -0 -0 -0 -0 -0 -0 -0 -0 -0 -0 -0 -0 -0 -0 -0 -0 -8 -8 -0 -6 -0 -30 -14 -16 -17 -16 -10 -61 -51 -13 -1 -6 -2 -3 -8
-0 -0 -0 -0 -0 -0 -0 -0 -0 -0 -0 -0 -0 -0 -0 -0 -0 -0 -0 -0 -0 -0 -0 -0 -0 -0 -1 -6 -34 -0 -0 -2 -0 -7 -3 -4 -26 -176 -179 -79 -15 -4 -9 -10 -18
-0 -0 -2 -0 -0 -0 -0 -4 -0 -0 -0 -0 -0 -0 -0 -0 -0 -0 -1 -0 -0 -0 -0 -0 -0 -0 -9 -0 -51 -0 -0 -9 -8 -29 -17 -84 -146 -225 -141 -77 -72 -1 -10 -8 -19
-0 -1 -9 -6 -0 -0 -0 -0 -8 -0 -0 -0 -0 -0 -0 -0 -3 -5 -4 -3 -0 -0 -0 -0 -0 -0 -64 -0 -32 -6 -9 -15 -27 -12 -8 -40 -145 -54 -0 -5 -58 -19 -6 -5 -10
-0 -10 -0 -0 -4 -5 -0 -0 -3 -5 -0 -0 -0 -0 -0 -0 -101 -109 -57 -37 -3 -0 -0 -0 -0 -0 -0 -0 -0 -35 -7 -0 -0 -33 -58 -56 -31 -6 -0 -115 -164 -9 -15 -5 -8
-2 -2 -0 -0 -1 -11 -5 -6 -2 -3 -3 -4 -1 -6 -35 -71 -114 -198 -183 -181 -49 -0 -0 -0 -0 -0 -0 -0 -0 -33 -29 -0 -75 -3 -23 -9 -60 -227 -81 -36 -125 -15 -15 -11 -6
Wind_Speed
24 25 25 26 26 26 26 26 26 26 26 26 26 25 25 25 26 22 23 19 20 19 18 17 17 16 15 14 14 10 14 20 18 21 19 16 15 23 20 8 26 25 23 22 23
24 25 25 25 25 25 26 26 25 25 26 27 26 26 25 26 25 28 24 23 22 21 20 18 16 16 18 14 15 12 12 19 13 13 21 26 24 29 19 12 23 29 26 25 25
25 25 25 26 26 26 26 27 27 26 26 26 26 26 25 25 25 28 16 25 24 24 23 20 18 18 16 14 16 15 17 16 18 12 10 23 23 29 13 9 26 26 25 25 24
26 27 27 28 28 28 29 29 28 28 27 26 26 25 25 22 14 12 17 23 24 25 24 22 20 18 12 8 14 13 14 14 16 16 12 12 16 21 19 26 25 25 25 25 23
27 27 28 29 29 30 31 30 30 28 27 26 26 25 22 15 30 10 16 21 26 25 26 24 21 19 19 19 13 17 12 12 14 12 11 15 18 19 0 27 25 25 25 24 23
28 29 29 30 30 30 31 31 30 28 27 26 25 24 19 28 20 7 25 21 28 24 26 26 24 22 19 18 16 20 19 15 11 15 14 13 18 18 15 23 23 23 23 23 22
29 30 30 31 31 32 32 32 30 28 26 25 23 21 24 17 18 16 21 27 28 28 27 28 28 25 24 21 18 20 17 15 11 13 14 20 23 20 17 18 19 19 19 21 22
29 30 31 31 31 32 33 32 29 26 25 23 20 19 21 11 26 28 28 30 30 29 29 28 26 27 25 24 20 18 17 14 9 10 14 15 16 17 15 14 18 16 18 19 20
30 30 31 31 31 31 31 29 27 24 22 18 18 16 26 14 15 23 12 16 31 31 31 29 23 26 24 22 20 21 11 11 7 7 13 5 12 14 11 12 16 19 16 19 18
30 31 31 31 31 32 31 28 21 22 17 15 24 22 20 18 11 9 11 7 20 19 20 12 21 18 20 23 5 16 24 25 12 10 15 13 10 13 10 10 12 8 18 17 19
31 32 32 32 32 33 28 21 19 17 12 13 16 17 16 13 11 13 8 6 15 16 9 12 11 17 21 24 12 22 11 12 17 13 15 14 11 11 14 12 12 13 20 8 19
32 32 33 33 33 31 22 19 23 25 28 15 13 21 25 18 21 15 12 7 8 8 6 7 12 21 25 26 20 25 27 21 15 20 14 9 10 9 7 9 11 11 14 15 20
32 32 33 33 33 23 19 29 24 25 25 29 6 8 13 13 22 18 5 7 9 9 9 9 14 16 24 23 6 26 27 13 13 11 6 5 8 12 12 13 12 11 12 10 21
32 32 32 33 24 25 23 19 23 22 22 16 6 9 5 7 23 23 4 8 14 9 9 9 32 12 16 29 19 26 31 20 6 17 3 9 6 6 7 5 15 12 11 15 15
33 32 31 29 28 22 21 24 23 20 20 6 5 9 4 3 15 4 6 11 11 7 15 9 8 27 6 27 14 15 15 21 29 21 21 3 7 8 9 16 20 13 12 11 13
33 33 31 24 17 22 26 24 20 13 17 6 8 9 3 4 13 3 8 10 12 34 19 35 25 20 36 30 36 28 4 23 29 21 15 14 3 7 4 8 15 16 14 12 11
33 33 32 28 17 21 23 20 11 9 11 9 7 5 4 3 5 4 7 8 11 14 28 22 34 26 26 37 25 36 33 14 15 19 11 18 18 16 6 11 13 13 13 13 11
34 34 25 7 13 25 20 13 11 12 14 14 14 5 3 3 4 4 13 11 11 17 21 20 21 37 11 22 27 23 31 30 13 17 35 17 15 13 15 11 11 12 11 11 12
34 27 10 9 4 12 13 11 10 16 21 16 11 18 9 7 11 6 10 14 11 36 39 15 27 8 20 20 37 35 35 35 35 21 8 14 4 20 9 11 12 9 8 9 10
30 25 16 2 4 7 12 18 25 31 21 18 24 13 15 7 5 9 10 17 25 10 40 37 32 14 7 18 40 26 30 33 35 18 15 11 9 6 8 11 14 9 8 7 8
19 13 9 6 5 8 12 20 26 28 22 23 24 27 23 20 7 14 27 20 20 29 34 39 36 29 9 14 32 38 36 32 35 33 25 21 10 9 10 19 10 8 9 9 7
20 11 6 5 2 6 13 22 33 29 15 24 24 25 25 25 21 11 32 23 15 29 16 37 34 34 34 14 15 37 32 29 28 29 29 28 11 17 19 13 7 8 9 11 8
12 5 8 2 3 3 11 28 34 28 28 21 24 25 26 29 22 27 23 31 22 19 36 26 41 37 34 28 8 33 40 36 34 31 31 25 11 17 23 24 19 9 7 11 8
15 11 6 6 11 32 31 19 28 22 31 27 28 29 26 25 27 27 27 26 21 23 26 33 40 41 34 37 28 9 28 38 36 33 16 15 16 16 20 24 19 9 10 12 7
10 10 19 14 6 9 31 29 23 26 15 28 30 31 29 28 29 31 26 29 20 23 23 36 43 42 21 12 34 33 28 36 31 31 17 13 17 11 8 6 25 19 9 10 9
12 22 25 27 26 21 17 28 29 22 21 18 29 32 31 35 22 27 32 28 17 17 28 32 42 40 32 23 34 25 20 24 30 29 15 18 7 9 7 20 28 11 6 6 8
22 24 21 22 26 21 21 23 26 28 27 27 28 31 30 25 31 16 38 34 38 16 31 32 38 38 33 22 22 34 26 25 24 31 24 19 8 7 6 22 19 10 7 6 6
Wind_Direction
324 322 319 316 311 304 299 295 291 286 280 276 273 269 267 270 262 227 210 244 221 232 231 224 214 203 187 193 179 237 140 64 92 44 78 30 326 17 313 225 57 42 85 93 107
322 320 316 312 308 302 298 292 287 281 277 275 272 268 267 274 250 230 233 236 219 221 219 227 254 234 214 193 213 170 121 1 288 287 29 34 59 54 72 153 82 57 69 95 111
315 313 312 310 307 304 301 296 290 281 276 273 270 270 266 270 241 213 276 223 226 211 215 228 232 230 219 243 275 297 30 344 20 231 252 57 63 22 110 148 56 69 79 98 108
314 314 313 311 309 307 305 301 296 287 280 275 272 271 266 266 305 297 268 239 234 216 214 219 225 208 199 179 344 147 39 36 28 55 196 264 83 68 105 64 69 75 85 98 105
310 309 309 309 309 306 305 301 296 291 286 280 277 279 281 276 208 321 289 258 228 200 208 213 219 228 297 253 332 192 351 53 36 85 155 68 42 44 255 63 72 79 85 97 106
310 309 307 306 306 304 303 298 292 287 285 283 284 283 293 254 256 332 239 255 204 179 201 211 221 255 238 204 308 266 273 204 69 43 76 2 344 44 110 65 79 86 92 100 102
307 308 307 305 303 302 302 298 290 283 282 284 291 297 278 193 287 290 266 235 209 201 203 215 228 248 228 248 289 281 199 178 102 67 35 357 329 258 38 90 75 84 102 94 102
305 306 305 304 301 299 299 297 291 290 288 290 301 303 289 291 204 251 249 232 223 229 232 238 253 230 230 241 204 188 185 181 36 54 22 31 31 194 202 105 66 119 102 88 97
303 301 301 302 300 296 293 286 285 293 298 304 305 309 283 309 291 265 285 273 228 225 221 232 261 212 211 200 197 186 145 36 100 100 8 99 55 162 123 101 97 147 95 95 113
301 301 299 298 297 297 291 277 309 300 316 312 286 296 284 300 301 288 281 263 266 197 182 193 188 186 187 199 31 190 275 265 205 37 359 303 39 6 169 105 80 50 277 117 115
302 301 299 297 295 298 301 313 327 327 319 298 311 292 318 305 319 290 282 251 269 252 182 174 176 181 183 191 321 216 137 136 164 2 345 290 21 73 141 72 75 86 46 245 209
301 300 299 296 293 291 304 312 317 300 295 294 279 286 281 297 287 290 276 249 230 227 214 205 192 185 192 208 290 204 250 279 317 318 342 9 28 127 62 89 109 114 109 109 124
299 299 299 295 290 299 316 286 302 302 302 284 233 259 286 295 283 279 244 245 240 236 208 216 184 182 193 192 195 229 223 321 341 187 41 96 173 2 10 354 154 118 110 103 105
296 296 299 301 298 300 297 319 305 318 309 306 318 298 273 285 282 266 242 250 260 228 236 229 207 190 184 203 281 224 217 300 35 316 68 15 188 177 44 226 191 140 106 128 93
295 294 294 299 287 296 312 302 304 304 312 39 25 347 328 224 324 223 250 257 241 239 261 223 219 198 216 195 178 279 287 288 270 304 211 160 16 38 48 11 264 166 113 110 94
293 291 294 299 314 265 279 291 295 322 311 358 346 327 299 203 288 316 263 264 246 245 268 245 261 269 215 207 224 243 340 251 247 204 197 221 155 6 41 67 150 173 133 94 86
287 280 280 283 294 300 291 291 319 307 340 340 342 353 318 284 265 276 272 241 205 248 260 266 252 261 196 238 264 225 237 299 177 178 350 325 318 288 70 100 69 90 100 85 61
287 276 297 318 298 272 290 301 303 307 312 330 322 1 328 304 262 217 279 257 199 258 264 263 266 213 189 196 190 185 205 206 168 307 260 334 343 323 121 66 45 59 75 68 77
291 293 327 334 335 302 292 282 287 300 300 313 317 294 311 300 297 194 276 267 246 205 229 263 267 242 267 186 204 237 233 223 245 306 219 219 158 170 54 51 41 40 81 72 66
299 302 302 95 350 308 286 273 262 273 299 301 279 308 297 305 260 263 279 270 259 217 222 238 259 275 235 206 225 232 223 248 244 286 320 183 36 84 6 23 349 46 91 88 70
329 353 33 22 349 297 277 277 270 273 286 280 275 276 274 280 288 272 259 272 266 248 242 233 244 260 230 242 234 228 239 256 233 255 282 290 334 351 352 351 8 42 103 104 84
312 348 7 15 343 288 282 278 261 278 292 274 278 276 274 274 278 286 254 269 273 250 249 237 246 249 244 193 184 229 201 189 208 242 251 260 339 339 328 347 36 69 106 121 99
343 339 345 6 303 252 288 273 265 275 269 279 272 275 269 262 284 269 274 252 269 265 241 251 234 242 242 239 193 243 226 206 232 225 260 284 308 320 317 307 286 50 73 133 105
332 348 344 327 291 265 274 277 275 283 264 266 266 264 270 274 270 273 272 266 268 263 257 246 234 228 252 235 250 233 219 235 227 233 304 308 318 314 291 296 314 47 94 124 110
347 351 312 315 309 278 267 277 279 274 277 263 261 259 265 268 266 268 272 265 272 262 259 240 231 229 259 263 235 203 187 211 246 247 304 331 315 337 336 227 241 220 97 115 120
344 317 302 280 281 289 284 275 275 278 270 270 260 253 257 254 293 285 273 266 269 265 251 243 230 232 256 276 239 249 256 256 246 271 297 318 0 31 38 160 211 131 33 81 95
312 302 304 289 282 295 287 279 270 266 264 261 257 255 259 283 280 323 232 252 245 259 249 240 231 233 246 272 248 238 254 262 261 259 277 296 320 78 74 228 204 44 36 72 72